Weather History for Sterling, IL

Change the Weather History Date:

Wednesday, January 8, 2014

  Actual Average Record
Temperature  
Mean Temperature 2 °F -  
Max Temperature 10 °F 27 °F 60 °F (2003)
Min Temperature -5 °F 14 °F -5 °F (2014)
Degree Days  
Heating Degree Days 62    
Moisture  
Dew Point -6 °F    
Average Humidity 73    
Maximum Humidity 92    
Minimum Humidity 57    
Precipitation  
Precipitation 0.00 in - - ()
Sea Level Pressure  
Sea Level Pressure 30.39 in    
Wind  
Wind Speed 1 mph (West)    
Max Wind Speed 6 mph    
Max Gust Speed -    
Visibility 10 miles    
Events      
Averages and records for this station are not official NWS values.
T = Trace of Precipitation, MM = Missing Value Source: NWS Daily Summary

Daily Weather History Graph

Daily Weather History Graph

Search for Another Location

Airport:

Trip Planner

Search our weather history database for the weather conditions in past years. The results will help you decide how hot, cold, wet, or windy it might be!

Date:

Astronomy

Jan. 08, 2014 Rise Set
Actual Time 7:25 AM CST 4:45 PM CST
Civil Twilight 6:54 AM CST 5:16 PM CST
Nautical Twilight 6:19 AM CST 5:51 PM CST
Astronomical Twilight 5:46 AM CST 6:24 PM CST
Moon 11:40 AM CST (1/8) 12:28 AM CST (1/8)
Length of Visible Light 10h 22m
Length of Day
9h 19m
First Quarter, 56% of the Moon is Illuminated
Jan 8
First Quarter
Jan 15
Full
Jan 23
Last Quarter
Jan 30
New
Feb 6
First Quarter

Hourly Weather History & Observations

Time (CST) Temp. Windchill Dew Point Humidity Pressure Visibility Wind Dir Wind Speed Gust Speed Precip Events Conditions
12:15 AM -5.8 °F - -7.6 °F 92% 30.25 in 10.0 mi Calm Calm - N/A   Clear
12:35 AM -4.0 °F - -9.4 °F 78% 30.25 in 10.0 mi Calm Calm - N/A   Clear
12:55 AM -4.0 °F - -9.4 °F 78% 30.25 in 10.0 mi Calm Calm - N/A   Clear
1:15 AM -5.8 °F - -9.4 °F 84% 30.25 in 10.0 mi Calm Calm - N/A   Clear
1:35 AM -5.8 °F - -11.2 °F 77% 30.26 in 10.0 mi Calm Calm - N/A   Clear
1:55 AM -5.8 °F - -9.4 °F 84% 30.26 in 10.0 mi Calm Calm - N/A   Clear
2:15 AM -5.8 °F - -11.2 °F 77% 30.27 in 10.0 mi Calm Calm - N/A   Clear
2:35 AM -5.8 °F - -9.4 °F 84% 30.28 in 10.0 mi Calm Calm - N/A   Clear
2:55 AM -5.8 °F - -11.2 °F 77% 30.28 in 10.0 mi Calm Calm - N/A   Clear
3:15 AM -5.8 °F - -11.2 °F 77% 30.28 in 10.0 mi Calm Calm - N/A   Clear
3:35 AM -4.0 °F - -9.4 °F 78% 30.29 in 10.0 mi Calm Calm - N/A   Clear
3:55 AM -4.0 °F - -9.4 °F 78% 30.29 in 10.0 mi Calm Calm - N/A   Clear
4:15 AM -4.0 °F - -9.4 °F 78% 30.30 in 10.0 mi Calm Calm - N/A   Clear
4:35 AM -2.2 °F - -7.6 °F 78% 30.30 in 10.0 mi Calm Calm - N/A   Clear
4:55 AM -4.0 °F - -9.4 °F 78% 30.32 in 10.0 mi Calm Calm - N/A   Clear
5:15 AM -4.0 °F - -7.6 °F 85% 30.32 in 10.0 mi Calm Calm - N/A   Clear
5:35 AM -4.0 °F - -9.4 °F 78% 30.33 in 10.0 mi Calm Calm - N/A   Clear
5:55 AM -2.2 °F - -7.6 °F 78% 30.33 in 10.0 mi Calm Calm - N/A   Clear
6:15 AM -2.2 °F - -7.6 °F 78% 30.33 in 10.0 mi Calm Calm - N/A   Clear
6:35 AM -0.4 °F - -7.6 °F 72% 30.33 in 10.0 mi Calm Calm - N/A   Clear
6:55 AM -0.4 °F - -7.6 °F 72% 30.34 in 10.0 mi Calm Calm - N/A   Clear
7:15 AM -0.4 °F - -5.8 °F 78% 30.35 in 10.0 mi Calm Calm - N/A   Clear
7:35 AM -0.4 °F - -5.8 °F 78% 30.36 in 10.0 mi Calm Calm - N/A   Clear
7:55 AM 1.4 °F - -5.8 °F 72% 30.36 in 10.0 mi Calm Calm - N/A   Clear
8:15 AM 1.4 °F - -5.8 °F 72% 30.37 in 10.0 mi Calm Calm - N/A   Clear
8:35 AM 1.4 °F -6.2 °F -5.8 °F 72% 30.38 in 10.0 mi North 3.5 mph - N/A   Clear
8:55 AM 1.4 °F - -5.8 °F 72% 30.40 in 10.0 mi Calm Calm - N/A   Clear
9:15 AM 3.2 °F -4.2 °F -5.8 °F 66% 30.41 in 10.0 mi North 3.5 mph - N/A   Clear
9:35 AM 5.0 °F - -4.0 °F 66% 30.41 in 10.0 mi Calm Calm - N/A   Clear
9:55 AM 5.0 °F -2.1 °F -5.8 °F 61% 30.42 in 10.0 mi NNW 3.5 mph - N/A   Clear
10:15 AM 5.0 °F - -5.8 °F 61% 30.43 in 10.0 mi Calm Calm - N/A   Clear
10:35 AM 8.6 °F - -4.0 °F 57% 30.43 in 10.0 mi Calm Calm - N/A   Clear
10:55 AM 8.6 °F - -2.2 °F 62% 30.43 in 10.0 mi Calm Calm - N/A   Clear
11:15 AM 8.6 °F 2.0 °F -2.2 °F 62% 30.42 in 10.0 mi West 3.5 mph - N/A   Clear
11:35 AM 8.6 °F 2.0 °F -2.2 °F 62% 30.41 in 10.0 mi West 3.5 mph - N/A   Clear
11:55 AM 8.6 °F - -2.2 °F 62% 30.41 in 10.0 mi Calm Calm - N/A   Clear
12:15 PM 8.6 °F - -0.4 °F 67% 30.40 in 10.0 mi Calm Calm - N/A   Clear
12:35 PM 8.6 °F 2.0 °F -0.4 °F 67% 30.40 in 10.0 mi WSW 3.5 mph - N/A   Clear
12:55 PM 8.6 °F 2.0 °F -0.4 °F 67% 30.40 in 10.0 mi West 3.5 mph - N/A   Clear
1:15 PM 10.4 °F 0.8 °F -0.4 °F 62% 30.40 in 10.0 mi WSW 5.8 mph - N/A   Clear
1:35 PM 8.6 °F -1.3 °F -0.4 °F 67% 30.40 in 10.0 mi West 5.8 mph - N/A   Clear
1:55 PM 8.6 °F -1.3 °F -0.4 °F 67% 30.40 in 10.0 mi West 5.8 mph - N/A   Clear
2:15 PM 10.4 °F 0.8 °F -0.4 °F 62% 30.41 in 10.0 mi WSW 5.8 mph - N/A   Clear
2:35 PM 8.6 °F -1.3 °F -0.4 °F 67% 30.42 in 10.0 mi WSW 5.8 mph - N/A   Clear
2:55 PM 8.6 °F 2.0 °F -0.4 °F 67% 30.43 in 10.0 mi WSW 3.5 mph - N/A   Clear
3:15 PM 8.6 °F -1.3 °F -0.4 °F 67% 30.44 in 10.0 mi West 5.8 mph - N/A   Clear
3:35 PM 8.6 °F -1.3 °F -0.4 °F 67% 30.44 in 10.0 mi West 5.8 mph - N/A   Clear
3:55 PM 8.6 °F 0.1 °F -0.4 °F 67% 30.44 in 10.0 mi West 4.6 mph - N/A   Clear
4:15 PM 8.6 °F - -0.4 °F 67% 30.44 in 10.0 mi Calm Calm - N/A   Clear
4:35 PM 8.6 °F - -0.4 °F 67% 30.44 in 10.0 mi Calm Calm - N/A   Clear
4:55 PM 6.8 °F - -0.4 °F 72% 30.44 in 10.0 mi Calm Calm - N/A   Clear
5:15 PM 6.8 °F - -2.2 °F 67% 30.45 in 10.0 mi Calm Calm - N/A   Clear
5:35 PM 6.8 °F - -2.2 °F 67% 30.45 in 10.0 mi Calm Calm - N/A   Clear
5:55 PM 3.2 °F - -4.0 °F 72% 30.45 in 10.0 mi Calm Calm - N/A   Clear
6:15 PM 3.2 °F - -4.0 °F 72% 30.45 in 10.0 mi Calm Calm - N/A   Clear
6:35 PM 1.4 °F - -5.8 °F 72% 30.46 in 10.0 mi Calm Calm - N/A   Clear
6:55 PM 3.2 °F - -2.2 °F 78% 30.46 in 10.0 mi Calm Calm - N/A   Clear
7:15 PM -0.4 °F - -7.6 °F 72% 30.47 in 10.0 mi Calm Calm - N/A   Clear
7:35 PM -0.4 °F - -7.6 °F 72% 30.47 in 10.0 mi Calm Calm - N/A   Clear
7:55 PM -2.2 °F - -5.8 °F 85% 30.48 in 10.0 mi Calm Calm - N/A   Clear
8:15 PM -2.2 °F - -11.2 °F 66% 30.48 in 10.0 mi Calm Calm - N/A   Clear
8:35 PM -0.4 °F - -5.8 °F 78% 30.48 in 10.0 mi Calm Calm - N/A   Clear
8:55 PM -2.2 °F - -7.6 °F 78% 30.48 in 10.0 mi Calm Calm - N/A   Clear
9:15 PM -2.2 °F - -7.6 °F 78% 30.48 in 10.0 mi Calm Calm - N/A   Clear
9:35 PM -2.2 °F - -5.8 °F 85% 30.48 in 10.0 mi Calm Calm - N/A   Clear
9:55 PM -0.4 °F - -5.8 °F 78% 30.48 in 10.0 mi Calm Calm - N/A   Clear
10:15 PM -5.8 °F - -7.6 °F 92% 30.48 in 10.0 mi Calm Calm - N/A   Clear
10:35 PM -4.0 °F - -11.2 °F 71% 30.48 in 10.0 mi Calm Calm - N/A   Clear
10:55 PM -4.0 °F - -9.4 °F 78% 30.48 in 10.0 mi Calm Calm - N/A   Clear
11:15 PM -4.0 °F - -7.6 °F 85% 30.48 in 10.0 mi Calm Calm - N/A   Clear
11:35 PM -5.8 °F - -9.4 °F 84% 30.49 in 10.0 mi Calm Calm - N/A   Clear
11:55 PM -4.0 °F - -7.6 °F 85% 30.49 in 10.0 mi Calm Calm - N/A   Clear